Weather History for Estherville, IA

Change the Weather History Date:

Monday, June 17, 2013

  Actual Average Record
Temperature  
Mean Temperature 75 °F 69 °F  
Max Temperature 87 °F 80 °F 94 °F (1949)
Min Temperature 63 °F 58 °F 44 °F (2000)
Degree Days  
Heating Degree Days 0 1  
Month to date heating degree days 54 34  
Since 1 June heating degree days 54 34  
Since 1 July heating degree days 7910 7732  
Cooling Degree Days 10 5  
Month to date cooling degree days 42 59  
Year to date cooling degree days 75 95  
Since 1 June cooling degree days 42 59  
Growing Degree Days 24 (Base 50)    
Moisture  
Dew Point 51 °F    
Average Humidity 50    
Maximum Humidity 78    
Minimum Humidity 21    
Precipitation  
Precipitation 0.00 in 0.14 in 1.15 in (1990)
Month to date precipitation 2.00 2.46  
Sea Level Pressure  
Sea Level Pressure 29.95 in    
Wind  
Wind Speed 11 mph (NW)    
Max Wind Speed 28 mph    
Max Gust Speed 36 mph    
Visibility 10 miles    
Events      
T = Trace of Precipitation, MM = Missing Value Source: NWS Daily Summary

Daily Weather History Graph

Daily Weather History Graph

Search for Another Location

Airport:

Trip Planner

Search our weather history database for the weather conditions in past years. The results will help you decide how hot, cold, wet, or windy it might be!

Date:

Astronomy

Jun. 17, 2013 Rise Set
Actual Time 5:37 AM CDT 9:02 PM CDT
Civil Twilight 5:02 AM CDT 9:37 PM CDT
Nautical Twilight 4:15 AM CDT 10:24 PM CDT
Astronomical Twilight 3:17 AM CDT 11:23 PM CDT
Moon 2:33 PM CDT (6/17) 1:23 AM CDT (6/17)
Length of Visible Light 16h 35m
Length of Day
15h 24m
First Quarter, 60% of the Moon is Illuminated
Jun 17
First Quarter
Jun 23
Full
Jun 29
Last Quarter
Jul 8
New
Jul 15
First Quarter

Hourly Weather History & Observations

Time (CDT) Temp. Dew Point Humidity Pressure Visibility Wind Dir Wind Speed Gust Speed Precip Events Conditions
12:52 AM 66.9 °F 51.1 °F 57% 29.94 in 10.0 mi West 8.1 mph - N/A   Clear
1:52 AM 66.9 °F 51.1 °F 57% 29.94 in 10.0 mi West 10.4 mph - N/A   Clear
2:52 AM 64.9 °F 52.0 °F 63% 29.93 in 10.0 mi WNW 9.2 mph - N/A   Clear
3:52 AM 64.9 °F 54.0 °F 68% 29.92 in 10.0 mi WNW 9.2 mph - N/A   Clear
4:52 AM 64.0 °F 55.0 °F 73% 29.91 in 10.0 mi NW 9.2 mph - N/A   Clear
5:52 AM 63.0 °F 55.0 °F 75% 29.92 in 10.0 mi WNW 8.1 mph - N/A   Clear
6:52 AM 64.9 °F 55.9 °F 73% 29.94 in 10.0 mi NW 10.4 mph - N/A   Clear
7:52 AM 69.1 °F 55.0 °F 61% 29.96 in 10.0 mi NNW 10.4 mph - N/A   Clear
8:52 AM 73.0 °F 55.0 °F 53% 29.97 in 10.0 mi North 10.4 mph - N/A   Clear
9:52 AM 77.0 °F 54.0 °F 45% 29.99 in 10.0 mi North 3.5 mph - N/A   Clear
10:52 AM 79.0 °F 51.1 °F 38% 29.98 in 10.0 mi NNW 4.6 mph - N/A   Clear
11:52 AM 81.0 °F 50.0 °F 34% 29.97 in 10.0 mi WNW 9.2 mph - N/A   Clear
12:52 PM 82.9 °F 48.9 °F 31% 29.97 in 10.0 mi WNW 13.8 mph 20.7 mph N/A   Clear
1:52 PM 84.0 °F 48.0 °F 28% 29.96 in 10.0 mi WNW 19.6 mph 31.1 mph N/A   Clear
2:52 PM 86.0 °F 48.0 °F 27% 29.94 in 10.0 mi WNW 18.4 mph 29.9 mph N/A   Partly Cloudy
3:52 PM 86.0 °F 42.1 °F 21% 29.94 in 10.0 mi WNW 23.0 mph - N/A   Clear
4:52 PM 82.0 °F 46.0 °F 28% 29.94 in 10.0 mi NW 16.1 mph - N/A   Clear
5:52 PM 82.0 °F 46.0 °F 28% 29.93 in 10.0 mi NW 18.4 mph 26.5 mph N/A   Clear
6:52 PM 79.0 °F 48.0 °F 34% 29.93 in 10.0 mi NW 13.8 mph - N/A   Clear
7:52 PM 78.1 °F 50.0 °F 37% 29.93 in 10.0 mi NNW 13.8 mph - N/A   Clear
8:52 PM 75.0 °F 51.1 °F 43% 29.94 in 10.0 mi NW 8.1 mph - N/A   Clear
9:52 PM 69.1 °F 53.1 °F 57% 29.96 in 10.0 mi WNW 5.8 mph - N/A   Clear
10:52 PM 66.9 °F 53.1 °F 61% 29.98 in 10.0 mi WNW 5.8 mph - N/A   Partly Cloudy
11:52 PM 66.9 °F 54.0 °F 63% 29.98 in 10.0 mi NW 6.9 mph - N/A   Mostly Cloudy